Vorticity
7 9 11 11 5 -2 2 10 5 1 4 8 10 5 7 2 -0 5 5 6 6 4 7 5 5 6 8 8 7 5 8 5 4 5 8 22 6 7 4 8 13 22 13 3 5 3 4
7 5 5 6 7 10 13 9 3 0 2 8 4 10 4 -0 3 6 7 0 8 9 2 4 6 7 8 7 5 4 8 3 5 3 11 19 4 8 10 16 8 14 5 17 6 14 -7
10 10 9 8 8 8 3 7 8 10 6 3 8 9 4 6 13 13 3 8 -5 9 -2 4 5 9 11 9 6 5 8 4 5 5 11 21 2 15 2 14 4 6 6 12 18 12 15
8 10 10 12 10 9 8 7 4 3 3 4 2 6 2 4 3 10 6 6 35 8 2 4 5 11 10 8 6 5 6 5 3 5 16 17 6 11 12 2 10 6 11 2 8 8 1
4 4 6 7 8 9 10 12 11 7 5 5 3 4 4 7 4 6 5 8 34 2 3 -1 4 9 9 8 5 7 6 7 3 4 15 12 10 18 15 7 5 9 7 9 20 9 14
5 5 4 4 7 8 8 9 10 10 10 9 10 6 8 4 8 7 8 4 7 28 8 8 9 7 6 5 4 7 5 5 3 7 10 16 6 15 16 14 3 12 4 22 2 7 11
6 7 6 8 4 3 6 6 8 12 8 7 8 7 6 8 10 5 11 4 11 15 15 22 11 5 7 5 4 9 4 7 2 8 15 11 12 9 21 8 11 7 7 11 1 11 10
3 3 5 7 7 8 4 6 6 5 10 12 8 8 7 8 8 8 6 12 4 13 8 13 11 3 10 1 4 9 4 7 3 9 11 13 11 10 19 16 11 7 7 11 5 4 -0
2 2 4 3 4 5 7 7 9 6 6 5 11 9 6 7 6 9 8 9 12 4 6 11 17 18 9 7 3 8 6 4 4 11 11 13 9 7 6 8 13 12 7 0 10 19 27
18 11 5 6 6 5 4 5 5 8 6 5 3 7 11 6 7 7 6 5 10 12 7 5 12 13 8 7 6 4 6 5 4 7 12 5 8 8 7 8 9 8 12 17 22 6 8
35 31 24 19 13 10 10 4 4 6 8 7 5 5 5 11 9 7 7 4 6 11 11 13 15 14 6 6 5 9 7 5 4 5 10 -5 13 6 9 6 15 14 7 8 16 9 6
24 27 36 38 39 25 15 16 5 5 5 7 6 6 6 8 13 7 8 8 6 8 13 6 16 19 13 3 5 4 4 3 5 4 14 10 14 7 1 23 17 2 5 13 4 7 7
12 6 12 17 26 36 36 27 24 7 5 4 6 5 6 5 12 8 7 9 5 3 12 7 7 22 15 5 8 4 7 9 9 9 17 13 11 7 4 24 7 -1 3 2 5 8 10
16 8 13 5 9 8 29 32 28 34 6 7 3 5 7 7 7 8 7 9 5 6 7 -2 17 11 16 6 8 6 10 3 4 10 7 9 8 10 6 22 7 1 -3 0 4 8 4
6 15 16 4 17 3 8 24 33 16 29 7 7 3 5 8 8 8 8 -0 6 5 4 5 2 11 2 8 11 7 7 8 5 3 11 12 16 11 9 12 10 -0 -3 3 0 1 7
19 10 9 23 5 10 10 9 35 39 13 20 7 6 2 9 7 6 3 7 9 8 5 -1 9 5 2 9 5 9 10 9 5 7 6 4 9 11 11 7 6 7 2 3 5 3 5
21 15 13 15 20 4 10 7 -0 27 35 16 14 6 1 6 8 4 -5 8 8 11 4 9 5 -1 9 1 7 8 6 7 7 4 4 8 10 14 11 11 19 7 2 7 -3 1 -1
34 25 23 18 12 18 5 12 13 -2 28 26 19 8 4 6 3 -2 3 3 8 14 7 6 7 12 1 15 0 4 9 10 5 6 5 9 9 11 15 6 10 12 5 4 0 0 0
38 23 19 30 27 9 23 4 15 8 1 44 53 11 8 10 1 -3 5 3 5 14 7 4 9 9 2 3 14 6 16 3 4 3 3 6 3 12 13 10 5 2 10 10 7 3 2
35 14 28 2 33 16 13 17 12 10 -1 2 35 32 5 3 5 4 5 5 4 10 9 11 8 4 3 7 6 9 2 -0 7 5 2 5 5 6 15 13 13 14 9 11 2 7 8
11 21 19 27 2 35 10 16 12 16 3 -3 20 41 24 7 2 3 2 3 4 5 11 10 10 2 4 9 7 6 12 15 9 6 4 4 3 6 10 15 14 10 4 1 6 9 13
-8 24 16 21 4 15 15 13 11 16 8 -0 -2 40 44 6 9 5 4 4 6 4 5 11 7 4 6 5 11 9 12 7 4 5 6 1 4 4 6 8 10 11 11 13 11 9 9
34 32 16 29 32 13 15 13 12 13 14 2 1 30 60 19 6 6 3 3 2 4 5 9 6 11 8 12 9 9 8 6 5 4 6 6 3 5 2 3 6 8 19 14 8 9 10
41 25 4 14 33 9 23 17 15 8 15 -2 7 -4 43 46 8 6 2 4 4 1 3 11 3 18 -8 17 11 6 13 4 2 4 6 5 5 4 4 4 1 9 13 13 11 14 14
66 15 26 19 12 8 19 17 17 7 16 2 -3 -4 51 41 18 7 5 -0 6 2 7 7 8 4 4 10 10 11 6 9 7 2 5 5 7 4 4 5 6 12 14 13 11 14 8
11 -1 25 29 12 9 22 18 14 12 15 -3 8 -3 33 60 19 6 6 3 -1 5 2 6 8 10 22 -5 11 6 7 7 7 5 4 3 3 2 4 5 3 0 9 11 8 6 20
18 20 12 40 3 21 13 19 7 22 9 -2 7 3 29 50 30 10 8 1 -2 1 5 5 4 11 11 3 4 10 3 4 5 -1 2 2 3 5 3 6 4 8 8 11 9 0 5
7 35 32 3 13 10 16 15 12 17 1 4 2 10 35 43 26 2 8 6 3 8 3 3 7 2 1 19 -1 2 2 8 0 -1 -3 10 5 1 5 8 5 8 10 7 9 10 8
30 13 8 18 12 16 14 6 17 8 9 6 4 10 35 47 19 14 4 6 1 1 0 9 7 3 11 5 19 11 1 4 -1 8 4 4 3 5 11 5 7 5 5 9 10 8 3
Height
5750 5751 5753 5754 5757 5759 5762 5766 5769 5771 5773 5775 5777 5778 5779 5783 5784 5786 5786 5789 5790 5792 5794 5794 5795 5795 5795 5795 5793 5790 5789 5786 5782 5777 5772 5768 5765 5762 5761 5759 5759 5759 5761 5761 5762 5766 5767
5738 5737 5740 5741 5744 5746 5749 5752 5757 5760 5762 5765 5767 5768 5770 5772 5774 5776 5778 5780 5783 5785 5787 5787 5789 5789 5789 5789 5787 5785 5784 5782 5778 5774 5769 5766 5763 5761 5760 5759 5760 5760 5760 5761 5761 5764 5766
5723 5725 5726 5728 5730 5733 5736 5740 5743 5748 5751 5755 5756 5758 5761 5763 5765 5767 5770 5771 5774 5777 5780 5780 5782 5783 5784 5783 5781 5780 5779 5778 5774 5770 5766 5763 5760 5760 5759 5758 5758 5759 5759 5760 5761 5761 5764
5708 5710 5712 5715 5717 5719 5723 5727 5731 5734 5738 5742 5746 5749 5751 5754 5756 5759 5761 5761 5763 5768 5771 5773 5775 5776 5778 5777 5776 5776 5775 5773 5770 5766 5763 5760 5758 5757 5757 5757 5757 5758 5758 5758 5759 5760 5762
5691 5696 5698 5700 5702 5704 5708 5713 5717 5721 5725 5729 5733 5738 5740 5744 5747 5750 5752 5753 5755 5759 5764 5766 5769 5769 5771 5772 5771 5771 5771 5769 5766 5763 5760 5758 5756 5755 5754 5754 5754 5756 5757 5757 5758 5758 5760
5672 5676 5681 5685 5688 5692 5694 5698 5703 5708 5711 5715 5720 5724 5729 5733 5736 5740 5743 5745 5746 5750 5755 5758 5761 5763 5765 5766 5765 5765 5766 5765 5763 5760 5757 5755 5754 5753 5752 5751 5753 5755 5755 5756 5757 5758 5757
5652 5656 5660 5666 5671 5676 5681 5686 5689 5693 5698 5702 5706 5710 5716 5721 5726 5730 5734 5737 5740 5743 5747 5749 5753 5754 5757 5759 5760 5761 5761 5760 5758 5756 5754 5752 5752 5751 5750 5750 5752 5752 5753 5754 5755 5757 5757
5631 5634 5639 5645 5651 5657 5663 5669 5675 5680 5683 5689 5694 5697 5702 5708 5716 5719 5723 5726 5730 5734 5739 5741 5743 5748 5750 5752 5754 5755 5756 5757 5754 5753 5750 5750 5749 5749 5748 5748 5749 5750 5751 5753 5754 5755 5757
5604 5610 5615 5622 5629 5636 5643 5651 5659 5665 5670 5674 5680 5684 5691 5696 5703 5709 5712 5715 5720 5724 5727 5735 5735 5740 5740 5744 5749 5750 5751 5751 5751 5749 5747 5747 5748 5748 5747 5747 5748 5750 5751 5750 5752 5753 5754
5576 5581 5589 5596 5605 5614 5622 5630 5639 5648 5655 5661 5665 5671 5677 5685 5693 5697 5700 5706 5711 5715 5717 5728 5726 5730 5733 5737 5743 5743 5745 5747 5747 5746 5744 5745 5746 5747 5746 5747 5745 5747 5749 5749 5750 5753 5754
5546 5552 5559 5568 5578 5589 5600 5609 5618 5629 5638 5645 5652 5658 5664 5672 5681 5686 5690 5696 5701 5707 5709 5717 5718 5721 5728 5731 5738 5739 5740 5742 5743 5742 5742 5743 5743 5744 5744 5744 5745 5746 5747 5748 5749 5751 5754
5525 5528 5532 5538 5548 5560 5573 5586 5598 5608 5619 5628 5637 5644 5651 5659 5667 5672 5677 5685 5692 5699 5700 5706 5710 5714 5720 5724 5728 5731 5733 5738 5738 5738 5737 5738 5740 5741 5742 5742 5743 5745 5745 5746 5748 5749 5752
5510 5512 5515 5518 5523 5531 5543 5557 5574 5586 5599 5611 5621 5629 5638 5645 5654 5657 5665 5673 5680 5685 5695 5700 5704 5708 5712 5717 5721 5723 5728 5732 5734 5734 5734 5735 5736 5737 5739 5740 5742 5742 5743 5745 5748 5749 5750
5491 5494 5497 5502 5506 5513 5520 5531 5544 5561 5576 5592 5603 5612 5623 5632 5640 5644 5652 5661 5668 5677 5687 5691 5695 5699 5705 5709 5713 5718 5721 5726 5728 5729 5729 5730 5732 5734 5736 5738 5739 5740 5741 5743 5745 5747 5748
5470 5474 5479 5484 5490 5497 5504 5512 5521 5535 5551 5569 5583 5594 5606 5619 5625 5630 5638 5646 5658 5669 5678 5683 5689 5693 5698 5702 5708 5712 5716 5721 5723 5725 5726 5727 5728 5730 5732 5734 5737 5738 5739 5741 5742 5744 5746
5446 5450 5458 5464 5472 5479 5489 5498 5506 5514 5526 5541 5560 5576 5592 5602 5610 5615 5622 5638 5648 5662 5669 5674 5680 5687 5692 5697 5701 5706 5710 5716 5718 5720 5721 5723 5724 5725 5728 5730 5732 5734 5737 5738 5738 5739 5741
5418 5424 5431 5441 5451 5462 5471 5483 5492 5500 5507 5518 5533 5551 5576 5584 5591 5596 5610 5629 5637 5649 5657 5665 5671 5677 5685 5689 5694 5699 5706 5711 5712 5714 5716 5717 5720 5722 5722 5725 5727 5730 5731 5733 5734 5736 5736
5383 5392 5403 5415 5428 5440 5453 5464 5476 5485 5492 5497 5514 5529 5556 5561 5570 5584 5604 5620 5629 5639 5647 5655 5662 5670 5676 5682 5687 5692 5698 5705 5706 5708 5711 5713 5715 5716 5719 5721 5722 5725 5728 5729 5729 5732 5731
5357 5366 5377 5389 5403 5418 5434 5447 5459 5469 5477 5485 5498 5515 5527 5538 5548 5578 5599 5605 5616 5628 5637 5646 5653 5660 5667 5674 5679 5685 5692 5696 5699 5702 5705 5707 5709 5711 5713 5717 5718 5720 5722 5724 5726 5726 5727
5336 5346 5356 5369 5381 5398 5414 5430 5443 5454 5464 5474 5482 5493 5499 5521 5553 5571 5581 5594 5606 5617 5627 5634 5643 5651 5659 5666 5671 5678 5685 5690 5694 5696 5698 5699 5702 5705 5708 5712 5712 5714 5717 5719 5720 5721 5722
5317 5327 5338 5350 5363 5379 5396 5413 5427 5438 5450 5459 5466 5472 5493 5509 5530 5562 5572 5584 5593 5607 5618 5625 5635 5641 5649 5657 5664 5669 5676 5681 5685 5689 5691 5692 5696 5700 5703 5704 5706 5708 5710 5711 5712 5715 5715
5296 5308 5321 5334 5348 5363 5380 5395 5411 5424 5436 5445 5455 5467 5487 5510 5535 5539 5554 5569 5581 5596 5610 5618 5627 5636 5642 5649 5656 5661 5668 5673 5677 5681 5683 5686 5689 5693 5696 5698 5700 5700 5703 5704 5706 5707 5707
5267 5286 5304 5319 5334 5350 5366 5383 5398 5409 5423 5437 5454 5466 5478 5502 5510 5526 5545 5560 5572 5586 5601 5609 5619 5627 5633 5645 5648 5655 5662 5667 5671 5675 5677 5679 5683 5688 5690 5692 5693 5695 5698 5699 5700 5700 5701
5238 5265 5290 5307 5323 5339 5356 5372 5387 5402 5418 5435 5449 5459 5462 5479 5497 5520 5536 5550 5563 5579 5592 5602 5611 5616 5630 5634 5641 5647 5654 5658 5663 5668 5671 5674 5679 5683 5684 5685 5684 5692 5692 5692 5692 5694 5694
5228 5258 5281 5299 5316 5333 5349 5365 5382 5398 5412 5426 5441 5449 5454 5464 5494 5511 5522 5536 5549 5565 5582 5592 5603 5609 5617 5624 5632 5639 5645 5651 5656 5661 5665 5670 5674 5675 5676 5678 5681 5684 5687 5687 5686 5691 5689
5240 5261 5279 5295 5313 5331 5346 5362 5379 5392 5406 5422 5436 5443 5446 5456 5479 5499 5512 5525 5538 5554 5571 5582 5592 5600 5608 5616 5622 5627 5635 5641 5649 5652 5658 5664 5667 5669 5670 5671 5673 5680 5680 5681 5680 5683 5682
5252 5267 5281 5297 5315 5331 5346 5362 5376 5389 5403 5419 5428 5434 5439 5449 5469 5486 5500 5517 5530 5544 5562 5574 5585 5591 5598 5605 5612 5618 5625 5632 5639 5644 5652 5658 5660 5662 5664 5665 5667 5671 5673 5674 5674 5679 5676
5260 5271 5287 5303 5319 5333 5348 5362 5375 5389 5402 5414 5422 5428 5433 5442 5460 5477 5490 5506 5519 5532 5552 5566 5574 5580 5588 5595 5599 5607 5614 5623 5630 5638 5644 5650 5655 5657 5658 5659 5661 5665 5664 5666 5667 5666 5667
5270 5283 5297 5310 5324 5337 5350 5364 5377 5389 5400 5410 5417 5423 5429 5439 5451 5466 5482 5499 5513 5525 5544 5556 5570 5577 5584 5591 5596 5602 5608 5616 5623 5628 5636 5641 5647 5651 5652 5653 5655 5656 5657 5657 5658 5657 5657